Cloud_Cover
100 100 100 100 98 97 99 61 62 76 95 22 100 84 55 90 11 5 5 5 0 0 2 100 100 100 21 35 18 99 41 100 100 28 88 100 44 0 0 96 9 40 12 3 10 0 0
100 100 100 100 100 100 100 100 100 100 99 100 100 100 100 6 80 64 31 4 4 0 8 32 100 85 76 13 60 100 82 100 97 28 99 14 0 1 49 4 3 65 6 2 28 24 74
100 100 100 100 100 100 100 100 100 100 100 100 100 100 98 97 79 9 7 12 5 4 11 85 100 100 49 94 82 100 69 14 15 5 3 3 0 60 90 6 62 5 0 3 79 4 100
100 100 100 100 100 100 100 100 100 100 100 100 100 100 100 100 100 93 5 90 95 2 32 36 100 100 100 100 100 77 96 16 82 41 19 5 0 0 5 100 0 0 2 11 92 16 100
100 100 100 100 100 100 100 100 100 100 100 100 100 100 100 100 100 100 46 89 51 26 82 7 90 100 100 100 36 99 100 100 100 100 100 58 0 0 22 77 3 7 1 14 10 4 44
100 100 100 100 100 100 100 100 100 100 100 100 100 100 100 100 100 100 50 49 17 43 11 5 29 92 100 77 67 59 100 100 100 100 100 8 3 0 20 100 26 100 100 96 16 62 6
100 100 100 100 100 100 100 100 100 100 100 100 100 100 100 100 100 100 100 8 32 100 12 5 30 8 61 72 16 100 100 100 100 100 69 5 0 0 19 100 24 95 37 92 100 24 6
100 100 100 100 100 100 100 100 100 100 100 100 100 100 100 100 100 100 99 83 11 61 55 16 60 41 59 34 26 57 100 100 70 100 100 100 6 3 22 100 30 3 2 74 100 92 5
100 100 100 100 100 100 100 100 100 100 100 100 100 100 100 100 100 100 100 94 34 78 95 55 84 14 20 100 100 100 100 100 100 100 100 75 58 98 41 99 46 2 2 88 6 41 0
100 100 100 100 100 100 100 100 100 100 100 100 99 100 100 100 100 100 100 100 91 19 21 100 8 65 24 100 100 100 100 94 91 100 100 100 50 86 5 31 100 46 44 90 32 19 23
100 100 100 100 100 100 100 100 100 100 100 100 100 100 100 100 99 100 100 100 100 90 6 6 8 100 14 81 100 100 100 95 74 70 89 100 48 5 5 8 100 9 74 66 13 2 29
100 84 100 100 100 100 100 100 100 100 100 100 100 100 100 100 100 100 100 100 100 100 11 80 45 100 43 100 100 100 100 100 100 88 14 100 73 75 30 5 62 100 10 5 3 2 3
39 87 22 26 100 100 100 100 100 100 100 100 100 98 49 100 100 100 100 100 100 53 5 96 76 100 100 100 100 100 100 100 100 56 86 100 15 85 66 5 41 76 5 12 91 50 0
100 100 100 96 22 8 92 73 100 100 100 100 100 100 95 100 100 100 100 100 52 12 70 31 69 100 100 100 100 100 100 100 100 100 100 100 90 100 18 42 48 79 11 40 89 84 97
100 100 100 95 100 67 5 11 28 100 100 100 100 100 100 100 100 100 100 100 0 7 99 100 100 80 100 100 100 100 100 100 100 100 100 100 100 76 100 100 63 98 42 12 100 41 90
100 100 100 100 100 98 22 5 37 100 100 100 98 100 96 92 98 100 100 100 57 48 90 100 100 92 100 98 100 100 100 100 100 100 100 99 100 90 100 100 100 100 79 23 78 58 33
100 100 100 100 100 100 100 100 92 100 100 100 100 100 83 95 71 100 100 100 100 100 100 100 100 100 100 100 100 100 100 100 100 100 100 100 100 100 100 100 100 100 47 5 46 28 10
100 100 100 100 100 100 100 100 100 100 100 100 100 100 78 92 99 100 74 3 80 85 45 7 9 100 99 100 100 100 100 100 100 100 100 100 100 100 100 100 92 54 71 19 6 47 95
100 100 100 100 100 100 100 85 95 100 100 100 100 100 100 100 89 100 43 3 3 0 0 0 1 1 67 100 100 100 100 100 100 100 100 100 100 100 99 100 100 100 98 6 5 5 5
100 82 98 100 100 73 71 27 100 100 100 100 100 100 100 100 16 37 8 1 0 2 1 0 0 0 20 98 100 100 100 100 100 100 100 100 100 76 100 100 100 98 100 98 59 92 62
93 100 100 100 94 84 100 99 100 100 100 100 100 99 51 100 90 5 88 2 5 5 6 0 5 0 10 25 100 100 100 100 100 100 100 100 75 100 100 100 100 100 100 100 100 65 24
100 100 84 11 100 100 100 100 100 100 100 100 100 74 63 59 98 81 84 5 10 5 4 0 0 0 3 96 100 100 100 100 97 100 100 100 68 100 100 100 100 100 100 100 100 6 61
100 99 100 98 76 100 100 100 100 100 100 100 100 83 100 16 92 82 22 1 5 16 57 0 0 4 10 1 6 96 73 98 100 99 100 89 10 99 92 100 100 100 100 100 100 100 100
6 23 5 5 23 83 100 100 100 100 100 100 100 84 100 99 35 42 4 5 7 100 30 8 88 1 3 0 90 80 100 88 86 100 83 66 80 100 98 100 100 100 100 96 88 35 100
91 100 99 71 91 91 100 98 75 100 100 100 100 100 100 100 27 32 35 58 73 73 96 12 87 0 0 95 74 100 100 100 100 100 98 100 100 51 100 100 100 100 100 100 92 100 100
86 99 100 100 100 96 100 100 16 5 100 100 100 100 100 100 91 44 100 100 88 100 100 0 4 59 82 82 100 100 100 100 100 92 100 100 93 85 100 100 100 100 100 100 100 100 100
32 20 39 94 100 100 100 100 78 58 87 100 100 100 100 100 100 100 100 100 100 100 53 38 5 97 84 48 99 100 100 100 98 80 100 100 100 85 100 100 100 100 100 100 100 100 100
5 5 5 5 78 100 100 100 100 82 100 100 100 100 100 100 100 87 100 100 98 100 27 33 100 64 100 100 69 100 100 93 96 86 28 100 100 100 99 100 98 100 100 100 100 100 97
93 100 29 73 85 100 100 100 100 100 100 100 100 100 100 100 100 56 99 100 100 100 100 100 72 24 63 100 89 100 100 72 35 74 65 99 100 93 100 25 70 100 100 100 100 100 86